Location: Olsztyn
(53.7767°N, 20.4765°E)
Time: 09:42:30
(UTC+02:00)

Tiros 1 despin weight - All Passes

Search period start: 15 July 2024 00:00
Search period end: 25 July 2024 00:00
Orbit: 576 x 620 km, 48.2° (Epoch: 14 July)

Date Brightness Start Highest point End Pass type
(mag) Time Alt. Az. Time Alt. Az. Time Alt. Az.
15 Jul - 03:49:10 10° S 03:51:39 15° SE 03:54:08 10° ESE daylight
15 Jul - 05:27:54 10° SW 05:31:52 33° SSE 05:35:54 10° E daylight
15 Jul - 07:08:17 10° WSW 07:12:28 40° S 07:16:42 10° ESE daylight
15 Jul - 08:49:16 10° W 08:52:58 25° SSW 08:56:41 10° SSE daylight
16 Jul - 03:58:06 10° SSW 04:01:21 20° SSE 04:04:39 10° ESE daylight
16 Jul - 05:37:39 10° WSW 05:41:44 38° S 05:45:54 10° ESE daylight
16 Jul - 07:18:15 10° WSW 07:22:22 37° S 07:26:31 10° SE daylight
16 Jul - 08:59:33 10° WSW 09:02:44 19° SSW 09:05:57 10° SSE daylight
17 Jul - 04:07:27 10° SW 04:11:07 27° SSE 04:14:52 10° E daylight
17 Jul - 05:47:29 10° WSW 05:51:39 41° S 05:55:51 10° ESE daylight
17 Jul - 07:28:16 10° W 07:32:13 32° SSW 07:36:13 10° SE daylight
17 Jul - 09:10:11 10° WSW 09:12:26 14° SW 09:14:40 10° S daylight
18 Jul - 02:38:22 10° S 02:40:44 14° SE 02:43:07 10° ESE visible
18 Jul - 04:17:01 10° SW 04:20:56 33° SSE 04:24:56 10° E daylight
18 Jul - 05:57:23 10° WSW 06:01:32 40° S 06:05:44 10° ESE daylight
18 Jul - 07:38:21 10° W 07:42:02 25° SSW 07:45:44 10° SSE daylight
19 Jul - 02:47:14 10° SSW 02:50:25 20° SSE 02:53:38 10° ESE visible
19 Jul - 04:26:44 10° WSW 04:30:48 38° S 04:34:55 10° ESE daylight
19 Jul - 06:07:19 10° WSW 06:11:24 37° S 06:15:32 10° ESE daylight
19 Jul - 07:48:35 10° WSW 07:51:46 19° SSW 07:55:00 10° SSE daylight
20 Jul - 02:56:31 10° SW 03:00:09 26° SSE 03:03:50 10° E visible
20 Jul - 04:36:32 10° WSW 04:40:39 40° S 04:44:50 10° ESE daylight
20 Jul - 06:17:18 10° W 06:21:14 32° SSW 06:25:12 10° SE daylight
20 Jul - 07:59:11 10° WSW 08:01:27 14° SW 08:03:43 10° S daylight
21 Jul - 01:27:29 10° S 01:29:45 14° SE 01:32:00 10° ESE visible
21 Jul - 03:06:03 10° SW 03:09:56 32° SSE 03:13:53 10° E visible
21 Jul - 04:46:24 10° WSW 04:50:30 40° S 04:54:41 10° ESE daylight
21 Jul - 06:27:20 10° W 06:31:01 26° SSW 06:34:43 10° SSE daylight
22 Jul - 01:36:16 10° SSW 01:39:23 19° SSE 01:42:32 10° ESE visible
22 Jul - 03:15:43 10° WSW 03:19:45 37° S 03:23:50 10° ESE visible
22 Jul - 04:56:18 10° WSW 05:00:21 37° S 05:04:27 10° ESE daylight
22 Jul - 06:37:32 10° WSW 06:40:44 20° SSW 06:43:56 10° SSE daylight
23 Jul - 01:45:30 10° SSW 01:49:05 25° SSE 01:52:44 10° E visible
23 Jul - 03:25:29 10° WSW 03:29:35 40° S 03:33:43 10° ESE visible
23 Jul - 05:06:14 10° W 05:10:09 32° SSW 05:14:07 10° SE daylight
23 Jul - 06:48:04 10° WSW 06:50:23 14° SW 06:52:41 10° S daylight
24 Jul - 00:16:32 10° S 00:18:40 13° SE 00:20:49 10° ESE visible
24 Jul - 01:55:00 10° SW 01:58:50 31° SSE 02:02:45 10° E visible
24 Jul - 03:35:19 10° WSW 03:39:24 40° S 03:43:33 10° ESE visible
24 Jul - 05:16:15 10° W 05:19:54 26° SSW 05:23:36 10° SSE daylight
